Погода в Рудном

Казахстан     52°57′51″N   63°08′00″E
темп.,
°C
ветер,
м/с
пор.,
м/с
влажн.,
%
обл.,
%
осадки,
мм/ч
давл.,
гПа
погр.,
м
19 января, ср
ср1900:00−14юз5129354 0.0 1025166
03:00−15юз411936 0.0 1025159
06:00−15юз4119311 0.0 1025142
09:00−15юз499447 0.0 1026126
12:00−13юз4109466 0.0 1026167
15:00−10юз499291 0.0 1026209
18:00−13юз3894100 0.0 102799
21:00−15юз3794100 0.0 102879
20 января, чт
чт2000:00−16ююз3496100 0.0 102854
03:00−16ююз3495100 0.0 102949
06:00−15ююз3594100 0.0 102963
09:00−19ююз339833 0.0 103030
12:00−16ююз3695100 0.0 1030105
15:00−12ю2593100 0.0 1030153
18:00−15ю2295100 0.0 102929
21:00−18ю2297100 0.0 102912
21 января, пт
пт2100:00−16ююв1195100 0.0 102814
03:00−15вюв1195100 0.0 102810
06:00−17ссв119724 0.0 10279
09:00−22св1210087 0.0 10279
12:00−19всв229628 0.0 102743
15:00−14ссв238875 0.0 102689
18:00−19ссв229614 0.0 102710
21:00−22ссв229819 0.0 102812
22 января, сб
сб2200:00−22ссв2298100 0.0 102820
03:00−19ссв2296100 0.0 102845
06:00−17ссв2396100 0.0 102849
09:00−17ссв2397100 0.0 102847
12:00−14св2494100 0.0 1029128
15:00−11ссв2392100 0.0 1028158
18:00−12ссв3694100 0.0 1029136
21:00−13ссв3594100 0.0 1030108
23 января, вс
вс2300:00−12с3592100 0.0 1029112
03:00−13с3492100 0.0 103069
06:00−15с2494100 0.0 103056
09:00−15с3593100 0.0 103177
12:00−13с3693100 0.0 1032158
15:00−11с3589100 0.0 1032186
18:00−13с359274 0.0 103483
21:00−18с229945 0.0 103530